When you browse on this site, cookies collect data to enhance your experience and personalize the content and advertising you see.
Visit our Privacy Policy to learn more. By continuing to use the site, you agree to this use of cookies and data.
  • In Portugal
  • List of Countries
  • For 7 days
  • Water Temperature
  • Satellite Maps
  • Weather Map
  • Weather Widgets
  • user-avatar
    Login

    Hourly Weather Lubomin

    Today, 21 March, Thursday

    Time Temperature Precipitation Wind Pressure Humidity
    00:00 +2°C° 0 mm 2 mps 733 mmHg 67%
    01:00 +3°C° 0 mm 2 mps 734 mmHg 66%
    02:00 +2°C° 0 mm 2 mps 733 mmHg 67%
    03:00 +2°C° 0 mm 2 mps 733 mmHg 68%
    04:00 +2°C° 0 mm 2 mps 733 mmHg 69%
    05:00 +3°C° 0 mm 2 mps 733 mmHg 70%
    06:00 +3°C° 0 mm 2 mps 734 mmHg 71%
    07:00 +3°C° 0 mm 2 mps 734 mmHg 70%
    08:00 +5°C° 0 mm 2 mps 734 mmHg 69%
    09:00 +7°C° 0 mm 2 mps 734 mmHg 67%
    10:00 +9°C° 0 mm 2 mps 735 mmHg 66%
    11:00 +10°C° 0 mm 2 mps 734 mmHg 64%
    12:00 +12°C° 0 mm 2 mps 734 mmHg 62%
    13:00 +13°C° 0 mm 2 mps 734 mmHg 60%
    14:00 +13°C° 0 mm 2 mps 734 mmHg 61%
    15:00 +13°C° 0 mm 2 mps 734 mmHg 62%
    16:00 +13°C° 0 mm 2 mps 733 mmHg 62%
    17:00 +12°C° 0 mm 2 mps 733 mmHg 69%
    18:00 +10°C° 0 mm 1 mps 733 mmHg 75%
    19:00 +9°C° 0 mm 1 mps 733 mmHg 82%
    20:00 +8°C° 0 mm 1 mps 733 mmHg 84%
    21:00 +8°C° 0 mm 1 mps 733 mmHg 86%
    22:00 +7°C° 0 mm 1 mps 733 mmHg 87%
    23:00 +7°C° 0 mm 1 mps 733 mmHg 88%

    Tomorrow, 22 March, Friday

    Time Temperature Precipitation Wind Pressure Humidity
    00:00 +7°C° 0 mm 1 mps 733 mmHg 88%
    01:00 +7°C° 0 mm 1 mps 733 mmHg 89%
    02:00 +7°C° 0 mm 1 mps 733 mmHg 89%
    03:00 +7°C° 0 mm 1 mps 733 mmHg 89%
    04:00 +6°C° 0 mm 1 mps 733 mmHg 89%
    05:00 +7°C° 0 mm 1 mps 733 mmHg 89%
    06:00 +7°C° 0 mm 1 mps 733 mmHg 89%
    07:00 +7°C° 0 mm 1 mps 733 mmHg 88%
    08:00 +9°C° 0 mm 1 mps 733 mmHg 82%
    09:00 +11°C° 0 mm 1 mps 734 mmHg 76%
    10:00 +13°C° 0 mm 1 mps 734 mmHg 70%
    11:00 +14°C° 0 mm 1 mps 734 mmHg 69%
    12:00 +14°C° 0 mm 1 mps 734 mmHg 67%
    13:00 +15°C° 0 mm 2 mps 733 mmHg 66%
    14:00 +15°C° 0 mm 2 mps 733 mmHg 67%
    15:00 +14°C° 0 mm 2 mps 733 mmHg 67%
    16:00 +14°C° 0 mm 2 mps 732 mmHg 68%
    17:00 +13°C° 0 mm 2 mps 732 mmHg 74%
    18:00 +11°C° 0 mm 1 mps 732 mmHg 81%
    19:00 +10°C° 0 mm 1 mps 731 mmHg 87%
    20:00 +10°C° 0 mm 1 mps 731 mmHg 88%
    21:00 +9°C° 0 mm 1 mps 731 mmHg 90%
    22:00 +9°C° 0 mm 1 mps 731 mmHg 91%
    23:00 +8°C° 0 mm 1 mps 731 mmHg 91%

    Day after tomorrow, 23 March, Saturday

    Time Temperature Precipitation Wind Pressure Humidity
    00:00 +8°C° 0 mm 1 mps 731 mmHg 92%
    01:00 +7°C° 0 mm 2 mps 731 mmHg 92%
    02:00 +7°C° 0 mm 2 mps 730 mmHg 91%
    03:00 +7°C° 0 mm 2 mps 730 mmHg 91%
    04:00 +7°C° 0 mm 2 mps 729 mmHg 90%
    05:00 +7°C° 0 mm 2 mps 729 mmHg 89%
    06:00 +7°C° 0 mm 2 mps 729 mmHg 88%
    07:00 +8°C° 0 mm 2 mps 729 mmHg 87%
    08:00 +10°C° 0 mm 2 mps 729 mmHg 78%
    09:00 +13°C° 0 mm 2 mps 730 mmHg 69%
    10:00 +15°C° 0 mm 2 mps 730 mmHg 59%
    11:00 +16°C° 0 mm 2 mps 729 mmHg 56%
    12:00 +17°C° 0 mm 2 mps 729 mmHg 52%
    13:00 +18°C° 0 mm 2 mps 729 mmHg 48%
    14:00 +18°C° 0 mm 2 mps 729 mmHg 48%
    15:00 +18°C° 0 mm 2 mps 728 mmHg 49%
    16:00 +18°C° 0 mm 2 mps 728 mmHg 49%
    17:00 +16°C° 0 mm 2 mps 728 mmHg 57%
    18:00 +14°C° 0 mm 2 mps 728 mmHg 64%
    19:00 +13°C° 0 mm 2 mps 728 mmHg 71%
    20:00 +12°C° 0 mm 2 mps 728 mmHg 76%
    21:00 +10°C° 0 mm 2 mps 728 mmHg 81%
    22:00 +10°C° 0 mm 3 mps 729 mmHg 86%
    23:00 +9°C° 0.1 mm 3 mps 729 mmHg 87%

    24 March, Sunday

    Time Temperature Precipitation Wind Pressure Humidity
    00:00 +8°C° 0.1 mm 3 mps 729 mmHg 89%
    01:00 +7°C° 0.1 mm 4 mps 729 mmHg 90%
    02:00 +6°C° 0 mm 4 mps 729 mmHg 87%
    03:00 +5°C° 0 mm 3 mps 729 mmHg 83%
    04:00 +4°C° 0 mm 3 mps 729 mmHg 80%
    05:00 +4°C° 0 mm 3 mps 729 mmHg 77%
    06:00 +3°C° 0 mm 3 mps 729 mmHg 74%
    07:00 +4°C° 0 mm 2 mps 729 mmHg 70%
    08:00 +4°C° 0 mm 2 mps 730 mmHg 66%
    09:00 +5°C° 0 mm 2 mps 730 mmHg 61%
    10:00 +6°C° 0 mm 2 mps 730 mmHg 56%
    11:00 +7°C° 0 mm 2 mps 730 mmHg 53%
    12:00 +7°C° 0 mm 2 mps 729 mmHg 51%
    13:00 +8°C° 0 mm 2 mps 729 mmHg 48%
    14:00 +8°C° 0 mm 3 mps 729 mmHg 48%
    15:00 +8°C° 0 mm 3 mps 728 mmHg 47%
    16:00 +8°C° 0 mm 3 mps 728 mmHg 47%
    17:00 +7°C° 0 mm 3 mps 728 mmHg 50%
    18:00 +6°C° 0 mm 2 mps 728 mmHg 53%
    19:00 +5°C° 0 mm 2 mps 728 mmHg 56%
    20:00 +4°C° 0 mm 2 mps 728 mmHg 60%
    21:00 +3°C° 0 mm 2 mps 728 mmHg 63%
    22:00 +3°C° 0 mm 1 mps 728 mmHg 66%
    23:00 +3°C° 0 mm 1 mps 728 mmHg 68%

    25 March, Monday

    Time Temperature Precipitation Wind Pressure Humidity
    00:00 +3°C° 0 mm 1 mps 728 mmHg 69%
    01:00 +2°C° 0 mm 1 mps 728 mmHg 71%
    02:00 +2°C° 0 mm 1 mps 728 mmHg 71%
    03:00 +1°C° 0 mm 2 mps 728 mmHg 72%
    04:00 +1°C° 0 mm 2 mps 728 mmHg 72%
    05:00 +1°C° 0 mm 2 mps 728 mmHg 71%
    06:00 0°C° 0 mm 3 mps 728 mmHg 70%
    07:00 +1°C° 0 mm 3 mps 728 mmHg 69%
    08:00 +1°C° 0 mm 4 mps 728 mmHg 63%
    09:00 +2°C° 0 mm 5 mps 728 mmHg 56%
    10:00 +4°C° 0 mm 6 mps 728 mmHg 49%
    11:00 +4°C° 0 mm 7 mps 727 mmHg 53%
    12:00 +4°C° 0 mm 7 mps 727 mmHg 56%
    13:00 +4°C° 0 mm 7 mps 726 mmHg 60%
    14:00 +4°C° 0.1 mm 7 mps 726 mmHg 61%
    15:00 +4°C° 0.1 mm 7 mps 726 mmHg 61%
    16:00 +4°C° 0.1 mm 7 mps 725 mmHg 62%
    17:00 +3°C° 0.1 mm 7 mps 725 mmHg 67%
    18:00 +3°C° 0.1 mm 6 mps 725 mmHg 71%
    19:00 +2°C° 0.1 mm 6 mps 725 mmHg 76%
    20:00 +2°C° 0.1 mm 6 mps 725 mmHg 76%
    21:00 +1°C° 0.1 mm 6 mps 725 mmHg 76%
    22:00 -1°C° 0.1 mm 6 mps 725 mmHg 76%
    23:00 -1°C° 0.2 mm 6 mps 724 mmHg 77%

    26 March, Tuesday

    Time Temperature Precipitation Wind Pressure Humidity
    00:00 +1°C° 0.2 mm 6 mps 724 mmHg 78%
    01:00 0°C° 0.2 mm 7 mps 724 mmHg 79%
    02:00 -1°C° 0 mm 6 mps 724 mmHg 79%
    03:00 -2°C° 0 mm 6 mps 724 mmHg 80%
    04:00 -2°C° 0 mm 5 mps 723 mmHg 80%
    05:00 -3°C° 0 mm 6 mps 723 mmHg 79%
    06:00 -3°C° 0 mm 7 mps 723 mmHg 77%
    07:00 -3°C° 0 mm 7 mps 724 mmHg 75%
    08:00 -2°C° 0.1 mm 8 mps 724 mmHg 70%
    09:00 -1°C° 0.1 mm 8 mps 724 mmHg 65%
    10:00 -1°C° 0.1 mm 8 mps 725 mmHg 60%
    11:00 0°C° 0 mm 8 mps 725 mmHg 55%
    12:00 +1°C° 0 mm 8 mps 725 mmHg 49%
    13:00 +2°C° 0 mm 8 mps 725 mmHg 43%
    14:00 +2°C° 0 mm 8 mps 726 mmHg 43%
    15:00 +2°C° 0 mm 8 mps 726 mmHg 44%
    16:00 +3°C° 0 mm 7 mps 726 mmHg 44%
    17:00 +2°C° 0 mm 6 mps 726 mmHg 51%
    18:00 0°C° 0 mm 5 mps 727 mmHg 58%
    19:00 -1°C° 0 mm 4 mps 727 mmHg 65%
    20:00 0°C° 0 mm 3 mps 728 mmHg 67%
    21:00 -1°C° 0 mm 3 mps 728 mmHg 69%
    22:00 -2°C° 0 mm 3 mps 729 mmHg 72%
    23:00 -2°C° 0 mm 3 mps 729 mmHg 74%
    Show more